EW9842 Weather Reports


Display with metric or nautical units.
time (UTC)temp
F
wind
direction
speed
MPH
gust
MPH
rain 1hr
in
rain 24hr
in
rain mn
in
humidity
%
barometer
mb
20260903133032 44 102 3.0 6.0 0.00 0.41 0.00 98 1013.6
20260903130036 43 121 2.0 5.0 0.00 0.41 0.00 98 1013.4
20260903124534 44 142 2.0 6.0 0.00 0.41 0.00 98 1013.4
20260903123033 43 114 1.0 4.0 0.00 0.41 0.00 98 1013.6
20260903121530 43 120 2.0 5.0 0.00 0.41 0.00 98 1013.5
20260903120035 44 196 2.0 7.0 0.00 0.41 0.00 98 1013.4
20260903114536 44 120 3.0 10.0 0.00 0.41 0.00 98 1013.5
20260903113036 43 133 3.0 8.0 0.00 0.41 0.00 98 1013.6
20260903111535 42 135 3.0 5.0 0.00 0.41 0.00 98 1013.5
20260903110035 42 107 1.0 5.0 0.00 0.41 0.00 98 1013.3
20260903104536 42 154 2.0 7.0 0.00 0.41 0.00 98 1013.1
20260903103033 42 171 2.0 6.0 0.00 0.41 0.00 98 1013.0
20260903101534 43 130 1.0 4.0 0.00 0.41 0.00 97 1013.0
20260903094535 43 139 1.0 3.0 0.00 0.41 0.00 97 1013.2
20260903093036 44 163 2.0 7.0 0.00 0.41 0.00 97 1013.0
20260903091535 44 134 3.0 8.0 0.00 0.41 0.00 97 1012.9
20260903090035 43 145 2.0 4.0 0.00 0.41 0.00 97 1013.3
20260903084533 43 155 2.0 4.0 0.00 0.41 0.00 97 1013.2
20260903083152 44 183 1.0 4.0 0.00 0.41 0.00 97 1013.1
20260903081535 44 145 2.0 5.0 0.00 0.41 0.00 96 1013.1
20260903074537 44 161 2.0 4.0 0.00 0.41 0.00 96 1012.8
20260903073036 45 192 1.0 5.0 0.00 0.41 0.00 95 1012.6
20260903071534 45 111 2.0 6.0 0.00 0.41 0.00 95 1012.7
20260903070035 46 104 1.0 4.0 0.00 0.41 0.00 94 1012.7
20260903064533 46 17 0.0 4.0 0.00 0.41 0.41 94 1012.7
20260903061536 48 333 6.0 11.0 0.00 0.41 0.41 94 1012.7
20260903060144 48 344 5.0 10.0 0.00 0.41 0.41 94 1012.7
20260903054536 48 13 5.0 11.0 0.00 0.41 0.41 94 1012.7
20260903053143 48 32 2.0 9.0 0.00 0.41 0.41 94 1012.6
20260903051533 49 342 4.0 7.0 0.00 0.41 0.41 94 1012.4
20260903050031 49 26 4.0 8.0 0.00 0.41 0.41 94 1012.5
20260903043109 49 6 3.0 8.0 0.00 0.41 0.41 93 1012.2
20260903041609 50 259 2.0 11.0 0.00 0.41 0.41 93 1012.2
20260903040034 50 246 4.0 15.0 0.00 0.41 0.41 95 1011.8
20260903034530 50 260 1.0 6.0 0.01 0.41 0.41 96 1011.9
20260903033036 51 340 2.0 5.0 0.03 0.41 0.41 96 1011.9
20260903031651 52 290 0.0 4.0 0.06 0.41 0.40 95 1011.9
20260903024536 53 245 1.0 7.0 0.12 0.40 0.38 95 1011.8
20260903023029 54 77 2.0 6.0 0.10 0.38 0.35 96 1011.8
20260903021534 54 226 0.0 4.0 0.08 0.35 0.31 96 1011.7
20260903020035 55 281 4.0 10.0 0.06 0.31 0.28 96 1011.2
20260903014535 55 322 2.0 5.0 0.05 0.28 0.28 96 1010.7
20260903013036 55 290 1.0 4.0 0.07 0.28 0.27 95 1010.8
20260903011531 55 272 1.0 5.0 0.06 0.27 0.25 95 1011.0
20260903010110 55 290 0.0 4.0 0.07 0.25 0.23 95 1011.0
20260903004531 55 280 1.0 4.0 0.08 0.23 0.21 95 1011.1
20260903003037 55 260 3.0 10.0 0.07 0.21 0.21 94 1010.9
20260903001610 56 304 3.0 6.0 0.07 0.21 0.18 94 1011.0
20260902233111 56 328 2.0 5.0 0.01 0.14 0.14 93 1011.1
20260902230035 56 297 3.0 7.0 0.02 0.14 0.14 93 1011.3
20260902224534 56 297 2.0 6.0 0.04 0.14 0.13 93 1011.2
20260902223035 56 277 2.0 6.0 0.04 0.13 0.12 92 1011.1
20260902221533 56 282 3.0 9.0 0.05 0.12 0.12 92 1011.1
20260902220035 56 317 1.0 7.0 0.06 0.12 0.10 91 1011.0
20260902214535 56 303 2.0 6.0 0.06 0.10 0.09 90 1010.8
20260902213037 56 4 1.0 5.0 0.07 0.09 0.07 88 1010.7
20260902211535 56 325 0.0 4.0 0.07 0.07 0.06 88 1010.6
20260902210034 56 156 0.0 4.0 0.06 0.06 0.04 87 1010.8
20260902204608 56 110 2.0 5.0 0.04 0.04 0.02 86 1011.0
20260902203108 57 126 1.0 4.0 0.02 0.02 0.00 84 1011.0
20260902201534 57 169 3.0 5.0 0.00 0.00 0.00 81 1011.2
20260902200034 58 166 5.0 11.0 0.00 0.00 0.00 78 1011.0
20260902194535 58 179 3.0 11.0 0.00 0.00 0.00 74 1011.0
20260902193036 58 139 5.0 12.0 0.00 0.00 0.00 72 1010.9
20260902191534 59 125 5.0 12.0 0.00 0.00 0.00 71 1010.9
20260902190035 60 115 2.0 7.0 0.00 0.00 0.00 74 1011.0
20260902184535 60 298 2.0 6.0 0.00 0.00 0.00 74 1011.1
20260902183036 60 280 1.0 3.0 0.00 0.00 0.00 73 1011.3
20260902181532 60 271 1.0 5.0 0.00 0.00 0.00 74 1011.1
20260902180033 59 262 0.0 4.0 0.00 0.00 0.00 75 1011.2
20260902174609 59 273 2.0 8.0 0.00 0.00 0.00 74 1011.1
20260902173033 61 277 4.0 9.0 0.00 0.00 0.00 71 1011.0
20260902171535 62 286 5.0 10.0 0.00 0.00 0.00 68 1011.1
20260902164535 62 288 3.0 8.0 0.00 0.00 0.00 68 1011.4
20260902163152 59 296 0.0 4.0 0.00 0.00 0.00 74 1011.6
20260902161534 57 327 0.0 4.0 0.00 0.00 0.00 79 1011.9
20260902160035 56 299 1.0 4.0 0.00 0.00 0.00 81 1012.0
20260902154534 55 346 1.0 4.0 0.00 0.00 0.00 85 1012.2
20260902153110 54 120 0.0 5.0 0.00 0.00 0.00 88 1012.3
20260902151537 52 204 0.0 5.0 0.00 0.00 0.00 91 1012.2
20260902150035 51 155 0.0 3.0 0.00 0.00 0.00 92 1012.4
20260902144536 49 133 0.0 4.0 0.00 0.00 0.00 93 1012.5
20260902141531 48 153 2.0 4.0 0.00 0.00 0.00 94 1012.6